Hutchinson, MN

7:25 AM CST on February 24, 2017 (GMT -0600)
Hutchinson Municipal-Butler

Weather History for KHCD - March, 2014

Change the Weather History Date:

Sunday, March 9, 2014

  Actual Average Record
Temperature  
Mean Temperature 26 °F -  
Max Temperature 41 °F 37 °F 56 °F (2015)
Min Temperature 11 °F 18 °F -13 °F (1984)
Degree Days  
Heating Degree Days 39    
Moisture  
Dew Point 26 °F    
Average Humidity 80    
Maximum Humidity 90    
Minimum Humidity 71    
Precipitation  
Precipitation 0.00 in - - ()
Sea Level Pressure  
Sea Level Pressure 29.80 in    
Wind  
Wind Speed 7 mph (SSW)    
Max Wind Speed 15 mph    
Max Gust Speed 20 mph    
Visibility 10 miles    
Events      
Averages and records for this station are not official NWS values.
T = Trace of Precipitation, MM = Missing Value Source: NWS Daily Summary

Daily Weather History Graph

Daily Weather History Graph

Search for Another Location

Airport or City:

Trip Planner

Search our weather history database for the weather conditions in past years. The results will help you decide how hot, cold, wet, or windy it might be!

Date:

Astronomy

Mar. 09, 2014 Rise Set
Actual Time 7:40 AM CDT 7:15 PM CDT
Civil Twilight 7:11 AM CDT 7:45 PM CDT
Nautical Twilight 6:37 AM CDT 8:18 PM CDT
Astronomical Twilight 6:03 AM CDT 8:53 PM CDT
Moon 12:58 PM CDT (3/9) 3:18 AM CDT (3/9)
Length of Visible Light 12h 33m
Length of Day
11h 34m
First Quarter, 61% of the Moon is Illuminated
Mar 9
First Quarter
Mar 16
Full
Mar 23
Last Quarter
Mar 30
New
Apr 7
First Quarter

Hourly Weather History & Observations

Time (CDT) Temp. Windchill Dew Point Humidity Pressure Visibility Wind Dir Wind Speed Gust Speed Precip Events Conditions
12:13 AM 11.8 °F 3.9 °F 9.3 °F 90% 30.13 in 10.0 mi South 4.6 mph - N/A   Clear
12:33 AM 12.4 °F 3.1 °F 9.9 °F 90% 30.11 in 10.0 mi South 5.8 mph - N/A   Clear
12:53 AM 13.1 °F 4.0 °F 10.4 °F 89% 30.10 in 10.0 mi South 5.8 mph - N/A   Clear
1:13 AM 13.8 °F 4.9 °F 11.1 °F 89% 30.09 in 10.0 mi South 5.8 mph - N/A   Clear
1:33 AM 13.8 °F 2.7 °F 11.1 °F 89% 30.09 in 10.0 mi South 8.1 mph - N/A   Clear
1:53 AM 14.2 °F 3.1 °F 11.5 °F 89% 30.07 in 10.0 mi South 8.1 mph - N/A   Clear
3:13 AM 14.5 °F 4.6 °F 11.7 °F 88% 30.06 in 10.0 mi South 6.9 mph - N/A   Clear
3:33 AM 15.1 °F 5.2 °F 12.0 °F 88% 30.04 in 10.0 mi South 6.9 mph - N/A   Clear
3:53 AM 15.6 °F 4.0 °F 12.2 °F 86% 30.03 in 10.0 mi South 9.2 mph - N/A   Clear
4:13 AM 17.4 °F 6.2 °F 13.1 °F 83% 30.01 in 10.0 mi South 9.2 mph - N/A   Clear
4:33 AM 18.3 °F 8.2 °F 14.0 °F 83% 29.99 in 10.0 mi South 8.1 mph - N/A   Clear
4:53 AM 18.5 °F 8.4 °F 14.4 °F 84% 29.98 in 10.0 mi South 8.1 mph - N/A   Clear
5:13 AM 19.0 °F 8.2 °F 14.7 °F 83% 29.98 in 10.0 mi South 9.2 mph - N/A   Clear
5:33 AM 19.2 °F 9.3 °F 14.9 °F 83% 29.97 in 10.0 mi South 8.1 mph - N/A   Clear
5:53 AM 19.9 °F 13.4 °F 15.3 °F 82% 29.96 in 10.0 mi South 4.6 mph - N/A   Clear
6:13 AM 20.8 °F 14.4 °F 15.8 °F 81% 29.95 in 10.0 mi SSE 4.6 mph - N/A   Clear
6:33 AM 21.4 °F 11.9 °F 16.5 °F 82% 29.93 in 10.0 mi South 8.1 mph - N/A   Clear
6:53 AM 21.9 °F 14.5 °F 16.7 °F 80% 29.92 in 10.0 mi South 5.8 mph - N/A   Clear
7:13 AM 22.1 °F 14.7 °F 17.4 °F 82% 29.90 in 10.0 mi SSE 5.8 mph - N/A   Clear
7:33 AM 22.6 °F 14.3 °F 17.6 °F 81% 29.88 in 10.0 mi South 6.9 mph - N/A   Clear
7:53 AM 23.4 °F 15.2 °F 18.3 °F 81% 29.87 in 10.0 mi South 6.9 mph - N/A   Clear
8:12 AM 24.3 °F 14.6 °F 18.9 °F 80% 29.86 in 10.0 mi South 9.2 mph - N/A   Clear
8:33 AM 25.5 °F 16.2 °F 19.6 °F 78% 29.84 in 10.0 mi South 9.2 mph - N/A   Clear
8:53 AM 26.6 °F 18.2 °F 20.7 °F 78% 29.84 in 10.0 mi South 8.1 mph - N/A   Clear
9:13 AM 28.2 °F 18.9 °F 21.9 °F 77% 29.83 in 10.0 mi South 10.4 mph 16.1 mph N/A   Clear
9:32 AM 28.9 °F 21.1 °F 23.0 °F 78% 29.82 in 10.0 mi South 8.1 mph - N/A   Clear
9:53 AM 30.4 °F 21.5 °F 23.9 °F 77% 29.80 in 10.0 mi South 10.4 mph - N/A   Clear
10:13 AM 31.6 °F 23.1 °F 25.2 °F 77% 29.79 in 10.0 mi South 10.4 mph - N/A   Clear
10:32 AM 32.9 °F 26.7 °F 26.2 °F 76% 29.79 in 10.0 mi SSW 6.9 mph - N/A   Clear
10:53 AM 34.7 °F 28.1 °F 27.9 °F 76% 29.77 in 10.0 mi South 8.1 mph - N/A   Clear
11:13 AM 36.0 °F 29.6 °F 28.9 °F 76% 29.76 in 10.0 mi South 8.1 mph - N/A   Clear
11:33 AM 37.4 °F 31.4 °F 29.8 °F 74% 29.75 in 10.0 mi SSW 8.1 mph - N/A   Clear
11:53 AM 38.1 °F 29.5 °F 30.6 °F 74% 29.75 in 10.0 mi SW 15.0 mph - N/A   Clear
12:13 PM 38.7 °F 30.9 °F 30.7 °F 73% 29.74 in 10.0 mi SSW 12.7 mph 19.6 mph N/A   Clear
12:32 PM 39.2 °F 32.5 °F 31.1 °F 73% 29.74 in 10.0 mi SW 10.4 mph 18.4 mph N/A   Clear
12:53 PM 39.4 °F 32.3 °F 31.3 °F 73% 29.73 in 10.0 mi SW 11.5 mph - N/A   Clear
1:13 PM 40.1 °F 33.2 °F 31.6 °F 72% 29.72 in 10.0 mi SW 11.5 mph - N/A   Clear
1:33 PM 39.6 °F 34.0 °F 32.0 °F 74% 29.72 in 10.0 mi SW 8.1 mph - N/A   Clear
1:52 PM 40.1 °F 34.7 °F 32.0 °F 73% 29.72 in 10.0 mi SW 8.1 mph - N/A   Clear
2:13 PM 40.6 °F 34.8 °F 32.0 °F 71% 29.70 in 10.0 mi SW 9.2 mph - N/A   Clear
2:33 PM 40.3 °F 34.4 °F 32.0 °F 72% 29.70 in 10.0 mi SW 9.2 mph - N/A   Clear
2:52 PM 40.3 °F 34.9 °F 32.2 °F 73% 29.70 in 10.0 mi SW 8.1 mph - N/A   Clear
3:13 PM 40.3 °F 35.5 °F 32.4 °F 73% 29.69 in 10.0 mi SW 6.9 mph - N/A   Clear
3:33 PM 40.3 °F 35.5 °F 32.7 °F 74% 29.68 in 10.0 mi SW 6.9 mph - N/A   Clear
3:53 PM 40.1 °F 36.1 °F 32.9 °F 75% 29.68 in 10.0 mi SW 5.8 mph - N/A   Clear
4:13 PM 40.6 °F 37.5 °F 32.9 °F 74% 29.69 in 10.0 mi WSW 4.6 mph - N/A   Clear
4:33 PM 40.1 °F 36.9 °F 33.1 °F 76% 29.68 in 10.0 mi SW 4.6 mph - N/A   Clear
4:53 PM 40.1 °F 34.7 °F 33.4 °F 77% 29.67 in 10.0 mi SW 8.1 mph - N/A   Clear
5:13 PM 40.3 °F 36.3 °F 33.6 °F 77% 29.67 in 10.0 mi SW 5.8 mph - N/A   Clear
5:33 PM 40.3 °F 35.5 °F 33.8 °F 78% 29.68 in 10.0 mi SW 6.9 mph - N/A   Clear
5:53 PM 40.1 °F 36.1 °F 34.0 °F 79% 29.68 in 10.0 mi WSW 5.8 mph - N/A   Clear
6:13 PM 40.1 °F 35.3 °F 34.3 °F 80% 29.69 in 10.0 mi WSW 6.9 mph - N/A   Clear
6:33 PM 39.9 °F 35.1 °F 34.3 °F 80% 29.69 in 10.0 mi WSW 6.9 mph - N/A   Clear
6:53 PM 38.3 °F 33.2 °F 34.2 °F 85% 29.69 in 10.0 mi WSW 6.9 mph - N/A   Clear
7:13 PM 39.4 °F 35.2 °F 34.7 °F 83% 29.68 in 10.0 mi SW 5.8 mph - N/A   Clear
7:33 PM 39.9 °F 35.8 °F 34.7 °F 82% 29.69 in 10.0 mi WSW 5.8 mph - N/A   Clear
7:53 PM 39.9 °F 35.8 °F 34.7 °F 82% 29.69 in 10.0 mi WSW 5.8 mph - N/A   Clear
8:12 PM 37.6 °F 32.3 °F 33.8 °F 86% 29.70 in 10.0 mi WSW 6.9 mph - N/A   Clear
8:33 PM 40.5 °F 35.1 °F 34.7 °F 80% 29.70 in 10.0 mi WSW 8.1 mph - N/A   Clear
8:53 PM 41.0 °F 36.4 °F 34.7 °F 78% 29.69 in 10.0 mi WSW 6.9 mph - N/A   Clear
9:13 PM 41.0 °F 38.0 °F 34.5 °F 78% 29.68 in 10.0 mi WSW 4.6 mph - N/A   Scattered Clouds
9:33 PM 37.9 °F 35.5 °F 33.6 °F 84% 29.68 in 10.0 mi WSW 3.5 mph - N/A   Overcast
9:53 PM 37.4 °F 33.8 °F 33.6 °F 86% 29.69 in 10.0 mi West 4.6 mph - N/A   Mostly Cloudy
10:13 PM 37.8 °F 33.3 °F 34.2 °F 87% 29.68 in 10.0 mi West 5.8 mph - N/A   Scattered Clouds
10:33 PM 37.9 °F 35.5 °F 34.0 °F 86% 29.68 in 10.0 mi SW 3.5 mph - N/A   Scattered Clouds
10:53 PM 37.8 °F 35.3 °F 34.0 °F 86% 29.68 in 10.0 mi SW 3.5 mph - N/A   Clear
11:13 PM 38.5 °F 36.1 °F 34.7 °F 86% 29.68 in 10.0 mi WSW 3.5 mph - N/A   Mostly Cloudy
11:33 PM 40.1 °F 36.1 °F 34.9 °F 82% 29.67 in 10.0 mi WSW 5.8 mph - N/A   Scattered Clouds
11:53 PM 39.4 °F 35.2 °F 34.5 °F 83% 29.66 in 10.0 mi SW 5.8 mph - N/A   Scattered Clouds
12:13 AM 40.1 °F 36.9 °F 34.7 °F 81% 29.66 in 10.0 mi SW 4.6 mph - N/A   Scattered Clouds
12:33 AM 39.6 °F 36.3 °F 34.5 °F 82% 29.65 in 10.0 mi SW 4.6 mph - N/A   Clear
12:53 AM 38.8 °F 35.4 °F 34.0 °F 83% 29.65 in 10.0 mi WSW 4.6 mph - N/A   Clear